Location: Kelshall
(52.0000°N, 0.0500°W)
Time: 22:55:59
(UTC+00:00)

Cosmos 2278 Rocket - Pass Details

Date: 18 September 2020
Orbit: 841 x 845 km, 71.0° (Epoch: 30 October)

Event Time Altitude Azimuth Distance (km) Brightness Sun altitude
Exits shadow 23:03:49 38° 346° (NNW) 1,262 3.4 -35.6°
Drops below altitude 10° 23:07:56 10° 23° (NNE) 2,472 5.1 -35.7°
Sets 23:10:30 0° 30° (NNE) 3,410 5.9 -35.8°
